Hill Air Force Base, UT

7:21 PM MST on February 07, 2016 (GMT -0700)
Hill Air Force Base

Weather History for KHIF - February, 2013

Change the Weather History Date:

Sunday, February 3, 2013

  Actual Average Record
Temperature  
Mean Temperature 22 °F -  
Max Temperature 28 °F 34 °F 53 °F (2015)
Min Temperature 17 °F 21 °F 7 °F (2011)
Degree Days  
Heating Degree Days 42    
Moisture  
Dew Point 22 °F    
Average Humidity 92    
Maximum Humidity 100    
Minimum Humidity 77    
Precipitation  
Precipitation 0.00 in - - ()
Sea Level Pressure  
Sea Level Pressure 30.25 in    
Wind  
Wind Speed 6 mph (SSW)    
Max Wind Speed 13 mph    
Max Gust Speed -    
Visibility 3 miles    
Events Fog , Snow    
Averages and records for this station are not official NWS values.
T = Trace of Precipitation, MM = Missing Value Source: NWS Daily Summary

Daily Weather History Graph

Daily Weather History Graph

Search for Another Location

Airport or City:

Trip Planner

Search our weather history database for the weather conditions in past years. The results will help you decide how hot, cold, wet, or windy it might be!

Date:

Astronomy

Feb. 03, 2013 Rise Set
Actual Time 7:36 AM MST 5:47 PM MST
Civil Twilight 7:07 AM MST 6:16 PM MST
Nautical Twilight 6:34 AM MST 6:49 PM MST
Astronomical Twilight 6:02 AM MST 7:21 PM MST
Moon 1:08 AM MST (2/3) 11:27 AM MST (2/3)
Length of Visible Light 11h 09m
Length of Day
10h 11m
Waning Gibbous, 48% of the Moon is Illuminated
Feb 3
Waning Gibbous
Feb 10
New
Feb 17
First Quarter
Feb 25
Full
Mar 4
Last Quarter

Hourly Weather History & Observations

Time (MST) Temp. Windchill Dew Point Humidity Pressure Visibility Wind Dir Wind Speed Gust Speed Precip Events Conditions
12:58 AM 26.2 °F 16.4 °F 21.2 °F 81% 30.38 in 10.0 mi ESE 10.4 mph - N/A   Clear
1:58 AM 26.4 °F 17.3 °F 20.8 °F 79% 30.36 in 10.0 mi East 9.2 mph - N/A   Clear
2:58 AM 26.1 °F 17.6 °F 20.7 °F 80% 30.34 in 10.0 mi ESE 8.1 mph - N/A   Clear
3:58 AM 25.7 °F 19.0 °F 20.7 °F 81% 30.33 in 10.0 mi ESE 5.8 mph - N/A   Clear
4:58 AM 24.4 °F 18.6 °F 21.2 °F 87% 30.33 in 9.0 mi East 4.6 mph - N/A   Clear
5:58 AM 26.8 °F 15.9 °F 20.3 °F 77% 30.31 in 10.0 mi ESE 12.7 mph - N/A   Clear
6:58 AM 22.8 °F 18.2 °F 20.8 °F 92% 30.32 in 9.0 mi North 3.5 mph - N/A   Clear
7:58 AM 24.3 °F 12.7 °F 18.9 °F 80% 30.31 in 10.0 mi East 12.7 mph - N/A   Clear
8:13 AM 19.4 °F 10.4 °F 17.6 °F 93% 30.24 in 3.0 mi South 6.9 mph - N/A   Clear
8:38 AM 17.6 °F 10.7 °F 17.6 °F 100% 30.24 in 0.8 mi SSW 4.6 mph - N/A   Clear
8:43 AM 17.6 °F 9.3 °F 17.6 °F 100% 30.24 in 0.2 mi SSW 5.8 mph - N/A Fog Light Freezing Fog
8:48 AM 17.6 °F 7.3 °F 17.6 °F 100% 30.24 in 0.2 mi SSE 8.1 mph - N/A Fog Light Freezing Fog
8:53 AM 19.4 °F 8.6 °F 17.6 °F 93% 30.24 in 0.5 mi ESE 9.2 mph - N/A Fog Light Freezing Fog
8:58 AM 20.8 °F 13.2 °F 19.4 °F 94% 30.33 in 2.5 mi East 5.8 mph - N/A   Clear
9:03 AM 21.2 °F 16.4 °F 17.6 °F 86% 30.24 in 8.0 mi East 3.5 mph - N/A   Clear
9:58 AM 24.6 °F - 19.8 °F 82% 30.32 in 10.0 mi North 2.3 mph - N/A   Mostly Cloudy
10:58 AM 25.2 °F 19.5 °F 21.4 °F 86% 30.33 in 10.0 mi NW 4.6 mph - N/A   Overcast
11:58 AM 25.9 °F - 22.8 °F 88% 30.32 in 6.0 mi WNW 2.3 mph - N/A   Clear
12:58 PM 28.8 °F - 23.9 °F 82% 30.28 in 10.0 mi West 2.3 mph - N/A   Clear
1:58 PM 28.4 °F 23.3 °F 24.4 °F 85% 30.27 in 5.0 mi WSW 4.6 mph - N/A   Clear
2:03 PM 28.4 °F 23.3 °F 24.8 °F 86% 30.21 in 4.0 mi SW 4.6 mph - N/A   Clear
2:58 PM 28.0 °F 24.2 °F 24.4 °F 86% 30.25 in 4.0 mi WSW 3.5 mph - N/A   Clear
3:13 PM 28.4 °F 24.6 °F 24.8 °F 86% 30.18 in 5.0 mi SSW 3.5 mph - N/A   Clear
3:48 PM 28.4 °F 22.2 °F 24.8 °F 86% 30.19 in 4.0 mi WSW 5.8 mph - N/A   Clear
3:58 PM 27.9 °F 21.5 °F 24.4 °F 87% 30.27 in 3.0 mi West 5.8 mph - N/A   Clear
4:08 PM 26.6 °F 22.6 °F 24.8 °F 93% 30.19 in 2.5 mi WSW 3.5 mph - N/A   Clear
4:58 PM 25.3 °F - 23.4 °F 92% 30.27 in 2.5 mi WSW 2.3 mph - N/A   Clear
5:18 PM 24.8 °F 17.9 °F 23.0 °F 93% 30.19 in 1.8 mi WNW 5.8 mph - N/A   Clear
5:22 PM 24.8 °F 16.1 °F 23.0 °F 93% 30.20 in 1.0 mi NW 8.1 mph - N/A   Mist
5:27 PM 24.8 °F 16.9 °F 23.0 °F 93% 30.20 in 0.5 mi WNW 6.9 mph - N/A Fog Light Freezing Fog
5:37 PM 24.8 °F 17.9 °F 23.0 °F 93% 30.20 in 0.8 mi NW 5.8 mph - N/A   Mist
5:42 PM 24.8 °F 17.9 °F 24.8 °F 100% 30.20 in 0.8 mi NW 5.8 mph - N/A   Mist
5:52 PM 24.8 °F 17.9 °F 24.8 °F 100% 30.21 in 0.5 mi NNW 5.8 mph - N/A Fog Light Freezing Fog
5:55 PM 24.8 °F 19.1 °F 24.8 °F 100% 30.21 in 0.2 mi North 4.6 mph - N/A Fog , Snow Light Freezing Fog
5:58 PM 24.8 °F 19.1 °F 24.1 °F 97% 30.29 in 0.2 mi North 4.6 mph - 0.00 in Fog , Snow Light Freezing Fog
6:03 PM 24.8 °F 19.1 °F 23.0 °F 93% 30.21 in 0.2 mi North 4.6 mph - N/A Fog , Snow Light Freezing Fog
6:08 PM 24.8 °F 19.1 °F 23.0 °F 93% 30.21 in 0.2 mi North 4.6 mph - N/A Fog , Snow Light Freezing Fog
6:17 PM 24.8 °F 16.1 °F 23.0 °F 93% 30.22 in 0.2 mi NNW 8.1 mph - N/A Fog Light Freezing Fog
6:20 PM 24.8 °F 16.9 °F 23.0 °F 93% 30.22 in 0.2 mi NNW 6.9 mph - N/A Fog , Snow Light Freezing Fog
6:25 PM 24.8 °F - 23.0 °F 93% 30.20 in 0.5 mi North 2.3 mph - N/A Fog , Snow Light Freezing Fog
6:30 PM 24.8 °F - 23.0 °F 93% 30.20 in 0.2 mi ENE 2.3 mph - N/A Fog Light Freezing Fog
6:33 PM 23.0 °F 18.4 °F 23.0 °F 100% 30.20 in 0.2 mi NE 3.5 mph - N/A Fog Light Freezing Drizzle
6:58 PM 23.4 °F 18.9 °F 22.8 °F 98% 30.29 in 0.2 mi South 3.5 mph - 0.00 in Fog Light Freezing Drizzle
7:00 PM 23.0 °F 17.0 °F 23.0 °F 100% 30.19 in 0.2 mi SSE 4.6 mph - N/A Fog Light Freezing Fog
7:14 PM 23.0 °F 14.7 °F 23.0 °F 100% 30.19 in 0.2 mi South 6.9 mph - N/A Fog Light Freezing Drizzle
7:51 PM 23.0 °F 18.4 °F 23.0 °F 100% 30.21 in 0.2 mi South 3.5 mph - N/A Fog , Snow Light Freezing Fog
7:58 PM 23.9 °F - 23.4 °F 98% 30.30 in 0.2 mi South 1.2 mph - 0.00 in Fog , Snow Light Freezing Fog
8:13 PM 23.0 °F - 23.0 °F 100% 30.21 in 0.2 mi West 2.3 mph - N/A Fog Light Freezing Fog
8:48 PM 23.0 °F - 23.0 °F 100% 30.21 in 0.2 mi Variable 2.3 mph - N/A Fog Light Freezing Fog
8:58 PM 23.0 °F 18.4 °F 22.3 °F 97% 30.31 in 0.2 mi South 3.5 mph - 0.00 in Fog Light Freezing Fog
9:13 PM 23.0 °F 15.8 °F 23.0 °F 100% 30.20 in 0.2 mi SE 5.8 mph - N/A Fog Light Freezing Fog
9:18 PM 23.0 °F 17.0 °F 23.0 °F 100% 30.20 in 0.2 mi SSE 4.6 mph - N/A Fog Light Freezing Fog
9:29 PM 23.0 °F 17.0 °F 23.0 °F 100% 30.20 in 0.2 mi SE 4.6 mph - N/A Fog Light Freezing Drizzle
9:58 PM 22.8 °F - 21.9 °F 96% 30.31 in 0.2 mi Variable 1.2 mph - 0.00 in Fog Light Freezing Drizzle
9:59 PM 23.0 °F - 21.2 °F 93% 30.22 in 0.2 mi Variable 2.3 mph - N/A Fog Light Freezing Fog
10:58 PM 22.8 °F - 21.9 °F 96% 30.32 in 0.2 mi Calm Calm - 0.00 in Fog Light Freezing Fog
11:58 PM 22.5 °F - 21.4 °F 96% 30.31 in 0.2 mi Calm Calm - N/A Fog Light Freezing Fog